Location: Rounton
(54.4000°N, 1.3500°W)
Time: 14:23:31
(UTC+00:00)

Transit 2A - Pass Details

Date: 09 December 2021
Orbit: 591 x 967 km, 66.7° (Epoch: 21 January)

Event Time Altitude Azimuth Distance (km) Brightness Sun altitude
Rises 22:38:15 0° 195° (SSW) 3,360 - -55.1°
Reaches altitude 10° 22:40:41 10° 190° (S) 2,484 - -55.3°
Maximum altitude 22:46:11 46° 119° (ESE) 1,204 - -55.7°
Drops below altitude 10° 22:52:09 10° 48° (NE) 2,682 - -56.2°
Sets 22:54:51 0° 43° (NE) 3,653 - -56.4°
